User: anonymous   Login
Location: Treviso
(45.6669°N, 12.2430°E)
Time: 08:53:55
(UTC+02:00)
Language:

NUDT-PHONESAT - Orbit

View from above orbital plane
View from above orbital plane
View from above satellite
View from above satellite

Ground track
Ground track

The orbit data is extracted from the following two-line orbital elements,

1 40900U 15049B   19111.81171051  .00002056  00000-0  91477-4 0  9994
2 40900  97.4389 121.7220 0014163  35.5579  49.7416 15.22545147198857
Epoch (UTC): 21 April 2019 19:28:51
Eccentricity: 0.0014163
inclination: 97.4389°
perigee height: 488 km
apogee height: 508 km
right ascension of ascending node: 121.7220°
argument of perigee: 35.5579°
revolutions per day: 15.22545147
mean anomaly at epoch: 49.7416°
orbit number at epoch: 19885

The dashed part of the orbit path shows where the satellite is in the earth's shadow,  

DLR